When you browse on this site, cookies collect data to enhance your experience and personalize the content and advertising you see.
Visit our Privacy Policy to learn more. By continuing to use the site, you agree to this use of cookies and data.

Hourly Weather Paris

Today, 21 September, Monday

Time Temperature Precipitation Wind Pressure Humidity
00:00 +20°C° 0.2 mm 2 mps 756 mmHg 54%
01:00 +19°C° 0 mm 2 mps 756 mmHg 55%
02:00 +19°C° 0 mm 2 mps 756 mmHg 56%
03:00 +19°C° 0 mm 1 mps 756 mmHg 58%
04:00 +18°C° 0 mm 2 mps 756 mmHg 60%
05:00 +17°C° 0 mm 2 mps 756 mmHg 62%
06:00 +16°C° 0 mm 2 mps 756 mmHg 64%
07:00 +18°C° 0 mm 2 mps 756 mmHg 59%
08:00 +19°C° 0 mm 2 mps 757 mmHg 54%
09:00 +21°C° 0 mm 2 mps 757 mmHg 49%
10:00 +24°C° 0 mm 1 mps 757 mmHg 43%
11:00 +25°C° 0 mm 1 mps 757 mmHg 37%
12:00 +27°C° 0 mm 1 mps 757 mmHg 31%
13:00 +27°C° 0 mm 2 mps 756 mmHg 29%
14:00 +28°C° 0 mm 2 mps 756 mmHg 27%
15:00 +28°C° 0 mm 2 mps 755 mmHg 25%
16:00 +27°C° 0 mm 2 mps 755 mmHg 29%
17:00 +25°C° 0 mm 2 mps 755 mmHg 33%
18:00 +23°C° 0 mm 2 mps 755 mmHg 38%
19:00 +21°C° 0 mm 2 mps 755 mmHg 41%
20:00 +21°C° 0 mm 2 mps 755 mmHg 44%
21:00 +20°C° 0 mm 2 mps 755 mmHg 47%
22:00 +19°C° 0 mm 2 mps 755 mmHg 50%
23:00 +19°C° 0 mm 1 mps 755 mmHg 53%

Tomorrow, 22 September, Tuesday

Time Temperature Precipitation Wind Pressure Humidity
00:00 +19°C° 0 mm 1 mps 755 mmHg 56%
01:00 +18°C° 0 mm 1 mps 755 mmHg 57%
02:00 +18°C° 0 mm 1 mps 754 mmHg 59%
03:00 +16°C° 0 mm 1 mps 754 mmHg 61%
04:00 +16°C° 0 mm 1 mps 754 mmHg 62%
05:00 +15°C° 0 mm 0 mps 754 mmHg 64%
06:00 +14°C° 0 mm 0 mps 754 mmHg 65%
07:00 +16°C° 0 mm 0 mps 754 mmHg 59%
08:00 +18°C° 0 mm 0 mps 754 mmHg 52%
09:00 +20°C° 0 mm 0 mps 754 mmHg 46%
10:00 +22°C° 0 mm 0 mps 753 mmHg 40%
11:00 +25°C° 0 mm 1 mps 753 mmHg 33%
12:00 +27°C° 0 mm 2 mps 753 mmHg 27%
13:00 +27°C° 0 mm 2 mps 752 mmHg 26%
14:00 +28°C° 0 mm 2 mps 752 mmHg 25%
15:00 +28°C° 0 mm 2 mps 751 mmHg 24%
16:00 +27°C° 0 mm 2 mps 751 mmHg 28%
17:00 +25°C° 0 mm 1 mps 751 mmHg 33%
18:00 +24°C° 0 mm 1 mps 751 mmHg 37%
19:00 +23°C° 0 mm 1 mps 751 mmHg 44%
20:00 +21°C° 0 mm 2 mps 751 mmHg 51%
21:00 +20°C° 0 mm 3 mps 752 mmHg 58%
22:00 +19°C° 0.2 mm 3 mps 752 mmHg 65%
23:00 +18°C° 0.2 mm 2 mps 752 mmHg 73%

Day after tomorrow, 23 September, Wednesday

Time Temperature Precipitation Wind Pressure Humidity
00:00 +18°C° 0.2 mm 2 mps 752 mmHg 80%
01:00 +17°C° 0 mm 2 mps 751 mmHg 81%
02:00 +18°C° 0 mm 1 mps 751 mmHg 82%
03:00 +18°C° 0 mm 1 mps 751 mmHg 83%
04:00 +17°C° 0.1 mm 2 mps 751 mmHg 84%
05:00 +17°C° 0.1 mm 2 mps 751 mmHg 86%
06:00 +17°C° 0.1 mm 2 mps 751 mmHg 88%
07:00 +18°C° 0 mm 3 mps 751 mmHg 81%
08:00 +19°C° 0 mm 3 mps 751 mmHg 75%
09:00 +20°C° 0 mm 4 mps 751 mmHg 68%
10:00 +21°C° 0.1 mm 4 mps 751 mmHg 64%
11:00 +22°C° 0.1 mm 4 mps 750 mmHg 60%
12:00 +23°C° 0.1 mm 4 mps 750 mmHg 55%
13:00 +23°C° 0.1 mm 5 mps 749 mmHg 54%
14:00 +25°C° 0.1 mm 5 mps 749 mmHg 52%
15:00 +24°C° 0.1 mm 6 mps 748 mmHg 51%
16:00 +23°C° 0.5 mm 5 mps 748 mmHg 58%
17:00 +21°C° 0.5 mm 5 mps 748 mmHg 65%
18:00 +20°C° 0.5 mm 5 mps 747 mmHg 72%
19:00 +20°C° 0.2 mm 5 mps 747 mmHg 73%
20:00 +20°C° 0.2 mm 6 mps 747 mmHg 74%
21:00 +20°C° 0.2 mm 6 mps 747 mmHg 75%
22:00 +19°C° 0 mm 6 mps 748 mmHg 77%
23:00 +17°C° 0 mm 6 mps 748 mmHg 78%

24 September, Thursday

Time Temperature Precipitation Wind Pressure Humidity
00:00 +16°C° 0 mm 6 mps 748 mmHg 79%
01:00 +16°C° 0.1 mm 5 mps 748 mmHg 77%
02:00 +15°C° 0.1 mm 4 mps 749 mmHg 76%
03:00 +14°C° 0.1 mm 4 mps 749 mmHg 74%
04:00 +14°C° 0 mm 3 mps 750 mmHg 75%
05:00 +13°C° 0 mm 3 mps 750 mmHg 76%
06:00 +13°C° 0 mm 2 mps 750 mmHg 77%
07:00 +13°C° 0 mm 3 mps 750 mmHg 72%
08:00 +14°C° 0 mm 4 mps 750 mmHg 67%
09:00 +15°C° 0 mm 4 mps 751 mmHg 61%
10:00 +16°C° 0 mm 5 mps 750 mmHg 56%
11:00 +17°C° 0 mm 5 mps 750 mmHg 50%
12:00 +17°C° 0 mm 6 mps 750 mmHg 45%
13:00 +19°C° 0 mm 6 mps 750 mmHg 44%
14:00 +19°C° 0 mm 6 mps 749 mmHg 43%
15:00 +19°C° 0 mm 6 mps 749 mmHg 41%
16:00 +17°C° 0.1 mm 6 mps 748 mmHg 50%
17:00 +16°C° 0.1 mm 6 mps 748 mmHg 58%
18:00 +15°C° 0.1 mm 5 mps 748 mmHg 66%
19:00 +14°C° 0.2 mm 5 mps 748 mmHg 67%
20:00 +14°C° 0.2 mm 5 mps 749 mmHg 68%
21:00 +13°C° 0.2 mm 5 mps 749 mmHg 68%
22:00 +13°C° 0 mm 5 mps 749 mmHg 67%
23:00 +12°C° 0 mm 5 mps 749 mmHg 66%

25 September, Friday

Time Temperature Precipitation Wind Pressure Humidity
00:00 +10°C° 0 mm 5 mps 749 mmHg 65%
01:00 +10°C° 0 mm 5 mps 749 mmHg 66%
02:00 +9°C° 0 mm 5 mps 749 mmHg 68%
03:00 +8°C° 0 mm 5 mps 749 mmHg 69%
04:00 +8°C° 0 mm 4 mps 749 mmHg 70%
05:00 +8°C° 0 mm 4 mps 749 mmHg 71%
06:00 +7°C° 0 mm 4 mps 749 mmHg 72%
07:00 +10°C° 0 mm 4 mps 749 mmHg 65%
08:00 +10°C° 0 mm 5 mps 749 mmHg 59%
09:00 +12°C° 0 mm 5 mps 749 mmHg 52%
10:00 +13°C° 0 mm 5 mps 749 mmHg 47%
11:00 +14°C° 0 mm 6 mps 749 mmHg 43%
12:00 +15°C° 0 mm 6 mps 749 mmHg 38%
13:00 +14°C° 0.2 mm 6 mps 749 mmHg 45%
14:00 +13°C° 0.2 mm 6 mps 749 mmHg 53%
15:00 +11°C° 0.2 mm 6 mps 749 mmHg 60%
16:00 +11°C° 0.3 mm 6 mps 749 mmHg 63%
17:00 +10°C° 0.3 mm 5 mps 749 mmHg 65%
18:00 +10°C° 0.3 mm 5 mps 750 mmHg 68%
19:00 +10°C° 0.1 mm 5 mps 750 mmHg 70%
20:00 +9°C° 0.1 mm 5 mps 751 mmHg 72%
21:00 +9°C° 0.1 mm 5 mps 751 mmHg 74%
22:00 +9°C° 0.1 mm 6 mps 751 mmHg 73%
23:00 +9°C° 0.1 mm 6 mps 752 mmHg 73%

26 September, Saturday

Time Temperature Precipitation Wind Pressure Humidity
00:00 +9°C° 0.1 mm 7 mps 752 mmHg 73%
01:00 +9°C° 0.2 mm 7 mps 752 mmHg 72%
02:00 +9°C° 0.2 mm 7 mps 752 mmHg 72%
03:00 +9°C° 0.2 mm 8 mps 753 mmHg 72%
04:00 +9°C° 0 mm 7 mps 753 mmHg 72%
05:00 +8°C° 0 mm 7 mps 754 mmHg 72%
06:00 +8°C° 0 mm 7 mps 755 mmHg 72%
07:00 +9°C° 0 mm 7 mps 755 mmHg 67%
08:00 +10°C° 0 mm 7 mps 756 mmHg 62%
09:00 +11°C° 0 mm 7 mps 756 mmHg 56%
10:00 +12°C° 0 mm 7 mps 757 mmHg 53%
11:00 +14°C° 0 mm 6 mps 757 mmHg 49%
12:00 +14°C° 0 mm 6 mps 757 mmHg 45%
13:00 +14°C° 0 mm 6 mps 757 mmHg 44%
14:00 +14°C° 0 mm 6 mps 757 mmHg 43%
15:00 +14°C° 0 mm 6 mps 757 mmHg 42%
16:00 +13°C° 0 mm 5 mps 757 mmHg 45%
17:00 +12°C° 0 mm 4 mps 757 mmHg 49%
18:00 +11°C° 0 mm 3 mps 757 mmHg 52%
19:00 +10°C° 0 mm 2 mps 757 mmHg 53%
20:00 +11°C° 0 mm 1 mps 757 mmHg 55%
21:00 +9°C° 0 mm 0 mps 757 mmHg 57%
22:00 +10°C° 0 mm 1 mps 757 mmHg 57%
23:00 +10°C° 0 mm 1 mps 756 mmHg 57%
Show more